Jefferson, NC

10:19 PM EDT on July 27, 2016 (GMT -0400)
Ashe County

Weather History for KGEV - January, 2005

Change the Weather History Date:

Tuesday, January 11, 2005

  Actual Average Record
Temperature  
Mean Temperature 51 °F -  
Max Temperature 60 °F 40 °F 62 °F (1975)
Min Temperature 42 °F 19 °F -13 °F (1988)
Degree Days  
Heating Degree Days 14    
Growing Degree Days 1 (Base 50)    
Moisture  
Dew Point 43 °F    
Average Humidity 73    
Maximum Humidity 88    
Minimum Humidity 59    
Precipitation  
Precipitation 0.02 in - - ()
Sea Level Pressure  
Sea Level Pressure 30.17 in    
Wind  
Wind Speed 2 mph (SSE)    
Max Wind Speed 7 mph    
Max Gust Speed -    
Visibility 10 miles    
Events Rain    
Averages and records for this station are not official NWS values.
T = Trace of Precipitation, MM = Missing Value Source: NWS Daily Summary

Daily Weather History Graph

Daily Weather History Graph

Search for Another Location

Airport or City:

Trip Planner

Search our weather history database for the weather conditions in past years. The results will help you decide how hot, cold, wet, or windy it might be!

Date:

Astronomy

Jan. 11, 2005 Rise Set
Actual Time 7:37 AM EST 5:30 PM EST
Civil Twilight 7:09 AM EST 5:58 PM EST
Nautical Twilight 6:37 AM EST 6:30 PM EST
Astronomical Twilight 6:06 AM EST 7:01 PM EST
Moon 8:58 AM EST (1/11) 6:59 PM EST (1/11)
Length of Visible Light 10h 49m
Length of Day
9h 52m
New Moon, 2% of the Moon is Illuminated
Jan 11
New Moon
Jan 17
First Quarter
Jan 25
Full
Feb 2
Last Quarter
Feb 8
New

Hourly Weather History & Observations

Time (EST) Temp. Windchill Dew Point Humidity Pressure Visibility Wind Dir Wind Speed Gust Speed Precip Events Conditions
12:01 AM 46.4 °F - 37.4 °F 71% 30.19 in 10.0 mi Calm Calm - N/A   Clear
12:21 AM 46.4 °F - 39.2 °F 76% 30.19 in 10.0 mi Calm Calm - N/A   Clear
12:40 AM 44.6 °F - 39.2 °F 81% 30.19 in 10.0 mi Calm Calm - N/A   Clear
1:00 AM 42.8 °F - 37.4 °F 81% 30.18 in 10.0 mi Calm Calm - N/A   Clear
1:20 AM 44.6 °F 43.1 °F 39.2 °F 81% 30.17 in 10.0 mi South 3.5 mph - N/A   Clear
1:40 AM 46.4 °F 44.3 °F 37.4 °F 71% 30.18 in 10.0 mi South 4.6 mph - N/A   Clear
2:00 AM 46.4 °F - 37.4 °F 71% 30.18 in 10.0 mi Calm Calm - N/A   Clear
2:20 AM 46.4 °F 45.2 °F 37.4 °F 71% 30.18 in 10.0 mi South 3.5 mph - N/A   Clear
2:40 AM 48.2 °F - 37.4 °F 66% 30.19 in 10.0 mi South 3.5 mph - N/A   Clear
3:00 AM 48.2 °F - 39.2 °F 71% 30.18 in 10.0 mi SSE 4.6 mph - N/A   Clear
3:20 AM 46.4 °F 45.2 °F 39.2 °F 76% 30.19 in 10.0 mi South 3.5 mph - N/A   Clear
3:41 AM 46.4 °F 43.5 °F 39.2 °F 76% 30.18 in 10.0 mi South 5.8 mph - N/A   Clear
4:00 AM 46.4 °F 43.5 °F 41.0 °F 81% 30.18 in 10.0 mi South 5.8 mph - N/A   Clear
4:20 AM 48.2 °F - 42.8 °F 82% 30.18 in 10.0 mi South 5.8 mph - N/A   Clear
4:41 AM 48.2 °F - 42.8 °F 82% 30.19 in 10.0 mi Calm Calm - N/A   Clear
5:00 AM 48.2 °F - 41.0 °F 76% 30.19 in 10.0 mi Calm Calm - N/A   Clear
5:21 AM 48.2 °F - 39.2 °F 71% 30.19 in 10.0 mi Calm Calm - N/A   Clear
5:40 AM 48.2 °F - 41.0 °F 76% 30.19 in 10.0 mi Calm Calm - N/A   Clear
6:00 AM 48.2 °F - 39.2 °F 71% 30.19 in 10.0 mi Calm Calm - N/A   Clear
6:40 AM 46.4 °F 45.2 °F 39.2 °F 76% 30.19 in 10.0 mi South 3.5 mph - N/A   Clear
7:00 AM 46.4 °F - 39.2 °F 76% 30.19 in 10.0 mi Calm Calm - N/A   Clear
7:20 AM 46.4 °F - 41.0 °F 81% 30.20 in 10.0 mi Calm Calm - N/A   Clear
7:40 AM 46.4 °F 45.2 °F 41.0 °F 81% 30.20 in 10.0 mi South 3.5 mph - N/A   Scattered Clouds
8:00 AM 46.4 °F 45.2 °F 41.0 °F 81% 30.20 in 7.0 mi South 3.5 mph - N/A   Scattered Clouds
8:22 AM 46.4 °F 45.2 °F 41.0 °F 81% 30.20 in 7.0 mi South 3.5 mph - N/A   Clear
8:40 AM 48.2 °F - 41.0 °F 76% 30.20 in 7.0 mi Calm Calm - N/A   Scattered Clouds
9:00 AM 48.2 °F - 42.8 °F 82% 30.20 in 7.0 mi Calm Calm - N/A   Scattered Clouds
9:20 AM 48.2 °F - 42.8 °F 82% 30.21 in 7.0 mi Calm Calm - N/A   Scattered Clouds
9:40 AM 50.0 °F - 42.8 °F 76% 30.21 in 10.0 mi South 4.6 mph - N/A   Scattered Clouds
10:00 AM 50.0 °F - 42.8 °F 76% 30.20 in 10.0 mi Calm Calm - N/A   Mostly Cloudy
10:20 AM 53.6 °F - 44.6 °F 72% 30.21 in 10.0 mi SSE 4.6 mph - N/A   Mostly Cloudy
10:40 AM 55.4 °F - 46.4 °F 72% 30.21 in 10.0 mi South 4.6 mph - N/A   Overcast
11:02 AM 55.4 °F - 46.4 °F 72% 30.20 in 10.0 mi SSE 5.8 mph - N/A   Mostly Cloudy
11:20 AM 55.4 °F - 44.6 °F 67% 30.19 in 10.0 mi SSE 6.9 mph - N/A   Scattered Clouds
11:40 AM 55.4 °F - 44.6 °F 67% 30.18 in 10.0 mi SSE 5.8 mph - N/A   Scattered Clouds
12:00 PM 57.2 °F - 46.4 °F 67% 30.17 in 10.0 mi SSE 4.6 mph - N/A   Scattered Clouds
12:20 PM 57.2 °F - 46.4 °F 67% 30.14 in 10.0 mi SSE 5.8 mph - N/A   Overcast
12:40 PM 57.2 °F - 46.4 °F 67% 30.13 in 10.0 mi SSE 5.8 mph - N/A   Overcast
1:00 PM 60.8 °F - 46.4 °F 59% 30.13 in 10.0 mi SSE 5.8 mph - N/A   Scattered Clouds
1:20 PM 60.8 °F - 46.4 °F 59% 30.12 in 10.0 mi SSE 4.6 mph - N/A   Clear
1:40 PM 60.8 °F - 46.4 °F 59% 30.11 in 10.0 mi SSE 4.6 mph - N/A   Clear
2:01 PM 60.8 °F - 46.4 °F 59% 30.11 in 10.0 mi SE 5.8 mph - N/A   Clear
2:40 PM 60.8 °F - 46.4 °F 59% 30.11 in 10.0 mi SSE 6.9 mph - N/A   Clear
3:00 PM 60.8 °F - 46.4 °F 59% 30.10 in 10.0 mi SSE 5.8 mph - N/A   Clear
3:21 PM 60.8 °F - 46.4 °F 59% 30.10 in 10.0 mi SE 6.9 mph - N/A   Clear
3:40 PM 60.8 °F - 46.4 °F 59% 30.11 in 10.0 mi SE 5.8 mph - N/A   Clear
4:00 PM 60.8 °F - 46.4 °F 59% 30.11 in 10.0 mi SE 5.8 mph - N/A   Clear
4:20 PM 57.2 °F - 46.4 °F 67% 30.11 in 10.0 mi SE 5.8 mph - N/A   Scattered Clouds
4:40 PM 57.2 °F - 46.4 °F 67% 30.11 in 10.0 mi SSE 4.6 mph - N/A   Mostly Cloudy
5:00 PM 57.2 °F - 46.4 °F 67% 30.12 in 10.0 mi SE 3.5 mph - N/A   Mostly Cloudy
5:20 PM 57.2 °F - 46.4 °F 67% 30.14 in 10.0 mi Calm Calm - N/A   Overcast
5:40 PM 57.2 °F - 48.2 °F 72% 30.15 in 10.0 mi NW 3.5 mph - N/A Rain Rain
6:00 PM 57.2 °F - 50.0 °F 77% 30.15 in 10.0 mi WSW 4.6 mph - N/A   Drizzle
6:21 PM 55.4 °F - 51.8 °F 88% 30.15 in 7.0 mi Calm Calm - 0.01 in Rain Rain
6:40 PM 55.4 °F - 51.8 °F 88% 30.15 in 5.0 mi SE 3.5 mph - 0.01 in Rain Rain
7:00 PM 55.4 °F - 51.8 °F 88% 30.15 in 7.0 mi West 4.6 mph - N/A   Light Drizzle
7:20 PM 55.4 °F - 51.8 °F 88% 30.15 in 5.0 mi Calm Calm - 0.01 in Rain Light Rain
7:40 PM 55.4 °F - 51.8 °F 88% 30.15 in 2.5 mi Calm Calm - 0.01 in Rain Light Rain
8:01 PM 55.4 °F - 51.8 °F 88% 30.14 in 1.8 mi Calm Calm - N/A   Light Drizzle
8:20 PM 55.4 °F - 51.8 °F 88% 30.14 in 4.0 mi SSW 3.5 mph - N/A   Light Drizzle
9:00 PM 53.6 °F - 51.8 °F 94% 30.14 in 3.0 mi Calm Calm - N/A   Scattered Clouds
9:20 PM 51.8 °F - 50.0 °F 94% 30.13 in 2.5 mi SSE 3.5 mph - N/A   Mostly Cloudy
9:40 PM 51.8 °F - 50.0 °F 94% 30.13 in 2.5 mi SSE 3.5 mph - N/A   Scattered Clouds
10:00 PM 51.8 °F - 50.0 °F 94% 30.13 in 3.0 mi SE 3.5 mph - N/A   Scattered Clouds
10:20 PM 51.8 °F - 50.0 °F 94% 30.13 in 3.0 mi Calm Calm - N/A   Overcast
10:40 PM 51.8 °F - 50.0 °F 94% 30.14 in 3.0 mi Calm Calm - N/A   Overcast
11:01 PM 51.8 °F - 50.0 °F 94% 30.15 in 4.0 mi Calm Calm - N/A   Overcast
11:20 PM 51.8 °F - 50.0 °F 94% 30.14 in 5.0 mi Calm Calm - N/A   Overcast
11:40 PM 51.8 °F - 50.0 °F 94% 30.14 in 3.0 mi Calm Calm - N/A   Overcast